Find Local Weather

World > North America > United States > Pennsylvania

Tunkhannock, Pennsylvania Regional Weather

Lat: 41.54N, Lon: 75.95W
Wx Zone: PAZ043
Warning FLW WEATHER ALERT - WINTER STORM WATCH (More Info. Click Here) Warning
Feedback
Expires:201901171400;;491969
ASUS41 KPHI 171311
RWRPHI

REGIONAL WEATHER ROUNDUP
NATIONAL WEATHER SERVICE MOUNT HOLLY NJ
800 AM EST THU JAN 17 2019

NOTE:  "FAIR" INDICATES FEW OR NO CLOUDS BELOW 12,000 FEET WITH NO
SIGNIFICANT WEATHER AND/OR OBSTRUCTIONS TO VISIBILITY.

 * = STATION DOES NOT REPORT PRECIPITATION (E.G. RAIN, SNOW, ETC.) 
        OR FOG.


PAZ043-044-047-054-055-060>062-066>071-171400-
EASTERN PENNSYLVANIA
  
CITY           SKY/WX    TMP DP  RH WIND       PRES   REMARKS
PHILADELPHIA   MOCLDY    28  14  55 N10       30.39R WCI  19          
NORTH PHILA    FAIR      28   9  44 N8        30.40R WCI  20          
BLUE BELL*     FAIR      25  12  58 N5        30.39R WCI  19          
DOYLESTOWN     FAIR      23   7  50 N5        30.36R WCI  17          
QUAKERTOWN*    CLEAR     21  10  63 CALM      30.36                   
PERKASIE*      FAIR      21   9  58 N3        30.36S                  
POTTSTOWN      FAIR      21  11  65 CALM      30.39R                  
LANCASTER      FAIR      26  16  65 NE8       30.37R WCI  18          
COATESVILLE    FAIR      25  16  68 NE5       30.36R WCI  19          
READING        FAIR      23  13  65 NE6       30.37R WCI  16          
ALLENTOWN      FAIR      22   8  55 N5        30.38R WCI  16          
MOUNT POCONO   FAIR      13   7  77 NW8       30.24S WCI   2          
HAZLETON       FAIR      16   7  67 CALM      30.31R                  
LEHIGHTON      FAIR      19  10  68 CALM      30.38R                  
WILKES BARRE   FAIR      17   8  67 NE7       30.34R WCI   8          

$$

SKY/WX - Weather  TMP - Temperature  DP - Dew Point  RH - Relative Humidity
WIND - Wind Direction/Speed PRES - Barometric Pressure